Weather WX

World > North America > United States > Oregon

Seal Rock, Oregon Regional Weather

Lat: 44.50N, Lon: 124.08W
Wx Zone: ORZ002
Feedback

Seal Rock, OR Regional Weather

Expires:201906200000;;753981
ASUS46 KPQR 192310
RWROR 

OREGON REGIONAL WEATHER ROUNDUP
NATIONAL WEATHER SERVICE PORTLAND OR
400 PM PDT WED JUN 19 2019

NOTE: "FAIR" INDICATES FEW OR NO CLOUDS BELOW 12,000 FEET WITH
NO SIGNIFICANT WEATHER AND/OR OBSTRUCTIONS TO VISIBILITY.


ORZ001>013-200000-
NORTHWEST OREGON

  
CITY           SKY/WX    TMP DP  RH WIND       PRES   REMARKS
ASTORIA        PTSUNNY   59  46  62 NW14      30.26S                  
TILLAMOOK      PTSUNNY   63  46  55 W16       30.28F                  
NEWPORT        SUNNY     61  50  67 NW15      30.30S                  
PORTLAND       PTSUNNY   68  43  40 N13G20    30.19F                  
VANCOUVER WA   CLOUDY    66  42  41 N7G16     30.19F                  
SCAPPOOSE      PTSUNNY   68  44  42 NW13G22   30.20S                  
HILLSBORO      PTSUNNY   68  42  38 NW18      30.19F                  
AURORA         CLOUDY    68  44  42 N3        30.20F                  
MCMINNVILLE    CLOUDY    68  46  45 NE6       30.19S                  
SALEM          PTSUNNY   69  42  37 W16G22    30.18F                  
CORVALLIS      MOSUNNY   73  47  39 NW14      30.18F                  
EUGENE         MOSUNNY   74  46  36 VRB7      30.18F                  
$$


SKY/WX - Weather  TMP - Temperature  DP - Dew Point  RH - Relative Humidity
WIND - Wind Direction/Speed PRES - Barometric Pressure VSB - Visibility
WCI - Wind Chill Index E13G22 Wind - East Wind 13 mph/Gusts of 22 mph